Glencoe, MN

3:12 PM CDT on April 23, 2017 (GMT -0500)
Glencoe Municipal

Weather History for KGYL - June, 2013

Change the Weather History Date:

Wednesday, June 19, 2013

  Actual Average (KHCD) Record (KHCD)
Temperature  
Mean Temperature 72 °F -  
Max Temperature 86 °F 77 °F 96 °F (1988)
Min Temperature 59 °F 55 °F 42 °F (2004)
Cooling Degree Days 8    
Growing Degree Days 22 (Base 50)    
Moisture  
Dew Point 55 °F    
Average Humidity 55    
Maximum Humidity 82    
Minimum Humidity 27    
Precipitation  
Precipitation 0.00 in - - ()
Sea Level Pressure  
Sea Level Pressure 29.99 in    
Wind  
Wind Speed 6 mph (SE)    
Max Wind Speed 12 mph    
Max Gust Speed 18 mph    
Visibility 10 miles    
Events      
Averages and records for this station are not official NWS values.
T = Trace of Precipitation, MM = Missing Value Source: NWS Daily Summary

Daily Weather History Graph

Daily Weather History Graph

Search for Another Location

Airport or City:

Trip Planner

Search our weather history database for the weather conditions in past years. The results will help you decide how hot, cold, wet, or windy it might be!

Date:

Astronomy

Jun. 19, 2013 Rise Set
Actual Time 5:30 AM CDT 9:05 PM CDT
Civil Twilight 4:53 AM CDT 9:42 PM CDT
Nautical Twilight 4:03 AM CDT 10:31 PM CDT
Astronomical Twilight 2:58 AM CDT 11:36 PM CDT
Moon 4:52 PM CDT (6/19) 2:23 AM CDT (6/19)
Length of Visible Light 16h 49m
Length of Day
15h 35m
Waxing Gibbous, 80% of the Moon is Illuminated
Jun 19
Waxing Gibbous
Jun 23
Full
Jun 29
Last Quarter
Jul 8
New
Jul 15
First Quarter

Hourly Weather History & Observations

Time (CDT) Temp. Heat Index Dew Point Humidity Pressure Visibility Wind Dir Wind Speed Gust Speed Precip Events Conditions
12:14 AM 66.4 °F - 55.9 °F 69% 30.03 in 10.0 mi East 4.6 mph - N/A   Clear
12:34 AM 65.7 °F - 55.6 °F 70% 30.03 in 10.0 mi East 5.8 mph - N/A   Clear
12:55 AM 65.1 °F - 55.8 °F 72% 30.04 in 10.0 mi East 4.6 mph - N/A   Clear
1:14 AM 64.6 °F - 55.0 °F 71% 30.04 in 10.0 mi East 3.5 mph - N/A   Clear
1:35 AM 64.4 °F - 55.4 °F 73% 30.04 in 10.0 mi East 4.6 mph - N/A   Clear
1:55 AM 63.5 °F - 55.4 °F 75% 30.03 in 10.0 mi ESE 3.5 mph - N/A   Clear
2:15 AM 62.6 °F - 54.9 °F 76% 30.03 in 10.0 mi East 4.6 mph - N/A   Clear
2:34 AM 62.1 °F - 55.0 °F 78% 30.03 in 10.0 mi East 4.6 mph - N/A   Clear
2:55 AM 62.2 °F - 54.7 °F 76% 30.02 in 10.0 mi East 4.6 mph - N/A   Clear
3:14 AM 61.3 °F - 54.9 °F 79% 30.02 in 10.0 mi ESE 6.9 mph - N/A   Clear
3:35 AM 61.0 °F - 54.7 °F 80% 30.02 in 10.0 mi East 4.6 mph - N/A   Clear
3:54 AM 61.2 °F - 54.7 °F 79% 30.02 in 10.0 mi East 4.6 mph - N/A   Clear
4:14 AM 60.8 °F - 54.5 °F 80% 30.01 in 10.0 mi East 3.5 mph - N/A   Clear
4:35 AM 59.9 °F - 54.0 °F 81% 30.01 in 10.0 mi East 5.8 mph - N/A   Clear
4:54 AM 59.9 °F - 54.5 °F 82% 30.02 in 10.0 mi ESE 4.6 mph - N/A   Clear
5:14 AM 60.6 °F - 54.5 °F 80% 30.03 in 10.0 mi Calm Calm - N/A   Clear
5:35 AM 60.3 °F - 54.5 °F 81% 30.03 in 10.0 mi SE 4.6 mph - N/A   Scattered Clouds
5:55 AM 61.5 °F - 54.7 °F 78% 30.03 in 10.0 mi SE 3.5 mph - N/A   Scattered Clouds
6:14 AM 61.3 °F - 55.4 °F 81% 30.04 in 10.0 mi ESE 3.5 mph - N/A   Mostly Cloudy
6:35 AM 63.0 °F - 56.1 °F 78% 30.05 in 10.0 mi East 5.8 mph - N/A   Overcast
6:54 AM 63.5 °F - 56.3 °F 77% 30.05 in 10.0 mi ESE 4.6 mph - N/A   Overcast
7:15 AM 64.4 °F - 56.7 °F 76% 30.05 in 10.0 mi ESE 5.8 mph - N/A   Overcast
7:34 AM 65.3 °F - 56.5 °F 73% 30.05 in 10.0 mi SE 6.9 mph - N/A   Overcast
7:55 AM 65.7 °F - 56.3 °F 72% 30.04 in 10.0 mi SE 6.9 mph - N/A   Overcast
8:15 AM 66.7 °F - 56.8 °F 70% 30.04 in 10.0 mi SSE 6.9 mph - N/A   Mostly Cloudy
8:34 AM 68.2 °F - 56.8 °F 67% 30.04 in 10.0 mi SSE 8.1 mph - N/A   Scattered Clouds
8:55 AM 70.0 °F - 57.9 °F 65% 30.04 in 10.0 mi SSE 8.1 mph - N/A   Clear
9:15 AM 70.7 °F - 57.4 °F 63% 30.04 in 10.0 mi SSE 5.8 mph - N/A   Clear
9:35 AM 72.0 °F - 58.1 °F 62% 30.04 in 10.0 mi SSE 8.1 mph - N/A   Scattered Clouds
9:54 AM 73.0 °F - 58.5 °F 60% 30.03 in 10.0 mi SSE 5.8 mph - N/A   Scattered Clouds
10:15 AM 74.1 °F - 58.8 °F 59% 30.03 in 10.0 mi SSE 6.9 mph - N/A   Scattered Clouds
10:34 AM 74.7 °F - 59.0 °F 58% 30.03 in 10.0 mi SE 6.9 mph - N/A   Clear
10:55 AM 76.3 °F - 58.6 °F 54% 30.03 in 10.0 mi SE 6.9 mph - N/A   Scattered Clouds
11:14 AM 77.0 °F - 58.8 °F 53% 30.02 in 10.0 mi SSE 5.8 mph - N/A   Scattered Clouds
11:34 AM 77.4 °F - 59.0 °F 53% 30.02 in 10.0 mi ESE 6.9 mph - N/A   Scattered Clouds
11:55 AM 78.4 °F - 58.8 °F 51% 30.01 in 10.0 mi East 8.1 mph - N/A   Mostly Cloudy
12:15 PM 79.2 °F - 59.0 °F 50% 30.01 in 10.0 mi SE 6.9 mph - N/A   Scattered Clouds
12:35 PM 80.2 °F 80.8 °F 59.0 °F 48% 30.00 in 10.0 mi East 9.2 mph - N/A   Clear
12:55 PM 81.0 °F 81.2 °F 58.5 °F 46% 30.00 in 10.0 mi SE 8.1 mph - N/A   Clear
1:15 PM 82.6 °F 82.2 °F 57.2 °F 42% 30.00 in 10.0 mi South 5.8 mph 9.2 mph N/A   Clear
1:34 PM 83.1 °F 82.6 °F 57.4 °F 41% 29.99 in 10.0 mi SE 8.1 mph - N/A   Clear
1:55 PM 82.8 °F 82.1 °F 56.5 °F 40% 29.98 in 10.0 mi SSE 8.1 mph - N/A   Scattered Clouds
2:14 PM 84.2 °F 83.2 °F 56.1 °F 38% 29.98 in 10.0 mi SE 9.2 mph - N/A   Scattered Clouds
2:35 PM 83.7 °F 82.5 °F 54.7 °F 37% 29.98 in 10.0 mi SSE 10.4 mph - N/A   Scattered Clouds
2:55 PM 84.6 °F 83.1 °F 54.0 °F 35% 29.97 in 10.0 mi SE 9.2 mph - N/A   Scattered Clouds
3:15 PM 84.6 °F 83.1 °F 54.0 °F 35% 29.97 in 10.0 mi ESE 10.4 mph - N/A   Scattered Clouds
3:34 PM 85.6 °F 83.8 °F 53.4 °F 33% 29.97 in 10.0 mi ESE 9.2 mph 16.1 mph N/A   Mostly Cloudy
3:55 PM 86.0 °F 84.2 °F 53.4 °F 33% 29.96 in 10.0 mi ESE 10.4 mph 18.4 mph N/A   Scattered Clouds
4:15 PM 84.2 °F - 51.4 °F 32% 29.95 in 10.0 mi SSE 6.9 mph - N/A   Scattered Clouds
4:34 PM 83.5 °F 82.1 °F 53.2 °F 35% 29.95 in 10.0 mi ESE 8.1 mph - N/A   Mostly Cloudy
4:55 PM 86.4 °F - 50.7 °F 29% 29.94 in 10.0 mi SE 9.2 mph - N/A   Scattered Clouds
5:15 PM 85.6 °F - 51.6 °F 31% 29.94 in 10.0 mi ESE 11.5 mph - N/A   Clear
5:35 PM 85.5 °F - 51.3 °F 31% 29.94 in 10.0 mi ESE 9.2 mph 17.3 mph N/A   Clear
5:54 PM 85.1 °F - 51.3 °F 31% 29.94 in 10.0 mi SE 8.1 mph - N/A   Scattered Clouds
6:15 PM 86.0 °F - 52.0 °F 31% 29.93 in 10.0 mi ESE 10.4 mph - N/A   Scattered Clouds
6:34 PM 86.0 °F - 51.6 °F 31% 29.93 in 10.0 mi SE 10.4 mph - N/A   Clear
6:55 PM 86.0 °F - 48.7 °F 27% 29.93 in 10.0 mi SSE 9.2 mph - N/A   Clear
7:15 PM 85.1 °F - 48.9 °F 28% 29.93 in 10.0 mi SE 9.2 mph - N/A   Clear
7:34 PM 83.3 °F 82.0 °F 53.2 °F 35% 29.93 in 10.0 mi SE 6.9 mph - N/A   Clear
7:55 PM 81.9 °F 81.2 °F 54.3 °F 39% 29.93 in 10.0 mi SE 5.8 mph - N/A   Clear
8:15 PM 81.0 °F 80.6 °F 54.5 °F 40% 29.93 in 10.0 mi SE 6.9 mph - N/A   Scattered Clouds
8:35 PM 80.2 °F 80.2 °F 54.9 °F 41% 29.93 in 10.0 mi SE 6.9 mph - N/A   Scattered Clouds
8:54 PM 79.2 °F - 55.8 °F 44% 29.93 in 10.0 mi SE 6.9 mph - N/A   Clear
9:15 PM 78.3 °F - 56.5 °F 47% 29.93 in 10.0 mi ESE 6.9 mph - N/A   Clear
9:34 PM 77.0 °F - 56.3 °F 49% 29.94 in 10.0 mi ESE 6.9 mph - N/A   Clear
9:55 PM 76.1 °F - 57.0 °F 51% 29.95 in 10.0 mi SE 6.9 mph - N/A   Clear
10:14 PM 77.0 °F - 56.8 °F 50% 29.95 in 10.0 mi SE 6.9 mph - N/A   Clear
10:35 PM 75.7 °F - 57.6 °F 53% 29.96 in 10.0 mi SE 6.9 mph - N/A   Clear
10:55 PM 75.4 °F - 57.4 °F 53% 29.96 in 10.0 mi SE 6.9 mph - N/A   Clear
11:14 PM 75.4 °F - 57.0 °F 53% 29.96 in 10.0 mi SE 6.9 mph - N/A   Clear
11:35 PM 76.1 °F - 56.5 °F 50% 29.96 in 10.0 mi SE 8.1 mph - N/A   Clear
11:55 PM 76.1 °F - 56.3 °F 50% 29.95 in 10.0 mi SE 9.2 mph - N/A   Clear